Tracking 29892 objects as of 21-Nov-2024
HD Live streaming from Space Station
objects crossing your sky now

SL-12 R/B

Track SL-12 R/B now!


NORAD ID: 20413
Int'l Code: 1983-020D
Perigee: 42,581.8 km
Apogee: 159,170.1 km
Inclination: 78.2 °
Period: 5,825.6 minutes
Semi major axis: 107246 km
RCS: 1.9953 m2 (large)
Launch date: March 23, 1983
Source: Commonwealth of Independent States (former USSR) (CIS)
Launch site: TYURATAM MISSILE AND SPACE COMPLEX (TTMTR)

Note: This is a ROCKET BODY
Your satellite tracking list
Your tracking list is empty




NASA's NSSDC Master Catalog

Two Line Element Set (TLE):
1 20413U 83020D   24324.74738910 -.00000806  00000-0  00000-0 0  9992
2 20413  78.1918  64.6665 5435510  33.3768 358.2353  0.24718695  9923
Source of the keplerian elements: AFSPC